DECAYED
Showing default

SONATE, 44400 (Decayed)

Orbit data source: Space-Track

SONATE, 44400 was a payload satellite owned by U Wurzburg (DE) in LEO that was launched on Fri, 05 Jul 2019 UTC via a SOYUZ-2-1B launch vehicle from the Vostochny Cosmodrome (VOSTO). Payload-class satellites include a variety of spacecraft equipped with specific instruments for various scientific and technological missions. These include communications satellites like Starlink; space stations such as the ISS; scientific satellites like the Hubble; Earth observation satellites from companies like Planet Labs, Umbra, and HawkEye 360; GPS; miniature CubeSats for education and research; and military/defense satellites.

Not visible in the next 10 days
Identifier
44400, 2019-038Q
Orbit
Decayed
Country
Flag of DEDE / GER
Related business
Manufacturer
U Wurzburg
Mission
Decayed Amateur Technology
Bus & Motor
CUBESAT 3U, Unknown motor
Mass
5 kg wet, 5 kg dry
Launch date (UTC)
2019-07-05 (7 years ago)
Launch vehicle
SOYUZ-2-1B
Launch site
Vostochny Cosmodrome (VOSTO)
Object type
Payload
Rocket body
Debris
Shape & HBR
Box, Unknown HBR
Radar Cross Section
0.035 m², Medium (>0.1 m² and < 1m²)

Expand to show TLE details & history
Last TLE update: 1 year ago

TLE from 1 year ago
0 SONATE
1 44400U 19038Q   25185.47540524  .09032085  27445-5  31847-3 0  9995
2 44400  97.6609 216.4776 0012462 246.7970 113.2018 16.43248376333575
Epoch: 2025-07-04T11:24Z
TLE epoch observation values (Epoch: 2025-07-04T11:24:35.012Z)
Latitude
-0.00006°
Longitude
122.60446°
Altitude
163.641 km
Speed
7.806 km/s
True Right ascension
14h 25m 54s
True Declination
0° 00' 00"
Sunlit
Object was in full shadow at epoch
Visualization orbit readout
Latitude
Unknown
Longitude
Unknown
Altitude
Unknown
Speed
Unknown
Apparent Right ascension
Unknown
Apparent Declination
Unknown
Sunlit
N/A
Visualization observer readout
Local Sidereal Time
02:06:59
Azimuth
Unknown
Elevation
Unknown
Doppler factor
Unknown
Orbital elements
Apogee altitude
162.131 km
Perigee altitude
145.851 km
Semi-major axis
6,532.128 km
Eccentricity
0.00125
Inclination
97.6609°
RAAN
216.4776°
Arg. of periapsis
246.797°
True anomaly
113.33297°
Mean anomaly
113.2018°
Eccentric anomaly
113.26739°
Mean motion
4.11113 °/min
Orbital period
87.57 mins
BSTAR
0.00031847
Loading maneuver chart data...
Computing Atmospheric mass density...
Loading historical data...
Loading historical data...
Loading historical data...
Loading historical data...
Loading historical data...
Loading historical data...
Loading historical data...

Documentation

Showing up to 5 results
|